Wind_Speed
15 15 12 2 2 4 3 6 4 3 9 5 5 5 4 2 5 3 20 25 43 37 34 34 33 30 27 26 25 24 24 25 25 25 23 22 21 19 18 17 16 15 14 12 11 10 10 9 8
14 12 1 1 3 3 6 6 11 10 10 5 3 2 1 3 4 9 17 37 45 41 36 35 33 31 28 26 25 24 24 25 25 24 22 20 19 18 17 16 14 13 11 10 9 7 6 5 4
9 3 2 4 5 7 6 6 7 7 11 4 3 2 1 6 11 9 22 38 43 40 37 35 33 30 29 27 25 24 23 24 25 24 21 19 17 17 15 14 13 11 10 8 7 5 4 3 1
2 4 3 3 9 8 9 3 4 3 5 7 3 5 4 3 7 11 35 40 42 38 36 34 32 30 28 27 25 23 22 24 24 23 20 18 16 15 14 13 12 10 8 6 5 3 1 0 2
3 3 2 4 10 7 8 8 5 6 3 5 7 4 4 7 26 34 33 38 41 37 35 33 32 30 28 27 25 22 22 22 23 22 20 17 16 14 13 11 10 8 7 5 3 1 1 2 3
1 3 2 12 7 14 13 9 6 8 10 8 9 7 7 11 32 29 25 34 38 36 35 33 31 30 29 28 26 23 21 22 23 22 20 17 14 13 11 9 8 7 5 4 2 2 3 4 5
5 4 6 5 14 16 13 6 7 9 7 5 7 7 5 3 13 27 27 31 33 32 33 34 32 31 29 28 26 24 22 22 23 22 19 16 14 12 10 7 6 5 4 2 2 3 5 6 7
5 3 5 7 10 16 4 4 3 6 4 9 12 5 9 8 15 27 29 30 31 32 32 32 31 30 29 27 25 23 22 22 23 22 19 16 13 11 9 7 6 4 3 3 4 5 6 8 10
5 3 8 12 14 10 7 2 3 7 9 5 4 11 18 47 29 27 30 25 29 29 31 32 32 31 29 27 25 22 21 20 21 20 18 16 13 10 8 7 5 4 5 5 6 8 8 9 11
6 7 9 2 6 3 9 1 4 2 4 4 2 19 22 34 34 31 26 23 28 27 31 31 30 30 28 26 25 24 22 21 21 20 17 15 11 9 8 6 5 5 7 8 7 8 9 10 12
7 10 18 2 7 8 11 7 3 1 2 8 15 20 20 28 28 28 29 32 28 35 31 31 31 30 29 28 26 24 23 22 20 19 17 14 13 12 10 9 8 7 10 10 10 9 9 11 13
6 7 7 4 9 7 13 4 3 9 8 12 23 23 22 23 23 27 31 34 36 38 38 33 32 31 30 29 29 27 25 23 21 18 16 15 13 11 10 12 9 9 11 11 10 11 12 15 16
11 6 4 8 11 14 12 18 4 16 7 15 20 18 21 12 13 18 29 35 32 39 42 39 35 34 31 30 28 26 24 22 20 17 17 15 14 11 9 11 7 5 6 8 9 8 5 9 9
1 7 16 10 9 8 14 11 5 15 2 17 19 21 20 16 5 7 20 25 30 33 40 40 37 33 30 30 30 28 26 24 22 20 18 16 13 9 5 9 5 5 8 10 11 5 6 11 14
9 6 6 11 17 10 2 11 19 12 4 16 22 23 16 5 11 10 3 26 31 33 42 39 38 36 33 31 30 27 25 24 21 20 18 15 13 9 5 4 5 5 7 4 4 4 6 11 16
4 3 2 5 9 7 9 15 20 8 3 17 20 14 11 5 6 11 15 9 20 21 31 39 38 40 35 33 28 26 24 22 22 20 19 17 16 12 9 5 1 1 4 6 7 10 10 10 11
4 4 5 4 6 5 10 10 11 7 6 10 16 18 17 9 6 9 13 21 11 21 13 32 33 38 34 31 28 21 21 21 21 21 23 20 15 11 8 3 1 2 6 7 9 11 12 13 15
4 4 3 5 2 6 11 17 5 4 6 12 13 9 9 13 9 14 10 15 16 11 5 6 22 32 32 30 30 28 21 18 19 22 23 18 14 12 10 7 3 3 7 10 10 13 12 17 19
6 2 2 3 6 4 9 12 8 7 6 10 9 9 5 5 5 26 22 19 17 11 10 19 27 37 33 31 24 23 21 18 18 21 21 16 14 13 11 8 8 7 12 14 15 15 16 19 24
10 7 4 4 9 5 11 14 4 5 6 7 15 12 14 8 6 7 28 27 22 12 17 28 22 26 34 28 20 21 18 20 23 21 19 17 14 13 12 15 17 13 13 14 17 19 18 13 22
11 7 3 5 7 3 6 7 5 1 5 6 9 12 13 17 13 8 14 23 25 16 14 14 22 35 24 30 24 13 18 26 27 23 22 17 14 16 19 18 16 14 12 15 18 20 19 16 15
12 6 6 5 4 3 7 4 4 4 4 4 9 14 12 13 10 6 7 13 22 23 16 11 14 16 31 30 28 24 20 18 27 26 23 21 20 22 20 17 15 13 13 14 15 17 16 11 13
3 5 4 4 4 3 4 2 8 9 3 8 8 10 15 15 13 11 9 17 25 25 29 21 21 13 34 29 31 29 29 25 30 27 25 23 21 19 18 15 13 12 11 10 12 14 13 10 13
1 2 1 1 4 2 6 5 5 6 9 5 9 11 13 11 10 12 15 9 11 18 23 11 14 19 20 28 30 35 38 35 33 30 27 25 21 18 15 12 9 10 9 9 10 9 9 8 10
4 5 0 1 1 6 6 2 8 5 10 15 20 17 15 14 14 15 15 14 17 25 26 10 14 32 30 14 29 35 37 37 35 33 29 25 20 16 13 9 7 8 8 7 7 9 8 9 11
5 6 5 6 5 5 5 5 9 6 4 10 16 20 17 19 17 18 19 21 26 25 27 29 43 34 31 28 30 36 36 35 34 31 27 22 17 13 9 7 6 5 5 6 7 8 8 11 12
4 5 5 5 2 3 4 7 8 7 3 7 9 9 18 20 19 19 17 20 22 31 31 31 31 36 31 33 29 30 28 31 29 26 22 20 16 13 9 7 6 5 6 6 8 9 10 9 11
3 7 5 4 2 3 4 4 8 6 12 8 10 14 10 8 13 13 8 16 23 24 30 29 25 29 30 36 33 32 29 25 25 27 24 19 15 11 9 6 4 4 6 8 10 12 10 9 9
3 4 5 4 3 1 2 6 7 11 10 12 18 18 13 13 16 13 8 13 21 24 27 26 27 34 34 33 35 35 34 34 32 27 21 15 10 7 6 4 4 7 11 13 13 9 10 13 16
5 8 7 4 4 5 2 6 4 8 15 10 20 20 19 15 7 7 7 14 16 25 27 29 29 33 34 38 36 35 34 31 28 23 17 11 9 6 4 6 8 9 10 9 9 10 13 17 18
Wind_Direction
286 299 313 320 66 70 240 243 237 261 323 157 167 112 165 102 225 220 140 154 155 154 159 159 155 152 149 146 141 139 140 140 137 132 128 128 125 124 123 123 122 123 123 122 119 117 112 104 100
292 316 258 116 141 163 247 209 261 228 230 17 307 112 146 123 71 126 118 157 155 152 159 159 156 154 151 148 146 143 144 145 143 138 134 131 130 129 129 129 129 127 126 125 122 122 119 112 98
300 286 104 170 190 199 221 184 224 267 225 332 124 42 46 118 112 150 144 149 150 151 157 158 158 156 154 153 150 148 148 150 150 146 141 137 137 134 133 132 131 133 134 133 129 127 123 114 72
320 28 339 164 233 240 205 153 274 344 352 277 327 22 39 88 100 153 148 150 149 151 156 158 159 158 157 156 153 153 153 155 155 152 148 145 142 138 137 137 139 143 145 144 140 138 144 311 325
196 75 228 215 245 244 237 224 220 251 191 189 139 35 46 21 128 141 146 153 150 151 156 160 161 160 161 159 159 159 158 159 160 160 155 152 149 146 144 145 147 151 152 153 153 165 260 301 310
17 121 155 224 238 251 251 218 208 224 243 182 99 89 39 111 125 141 145 152 153 150 155 159 163 163 164 164 164 164 164 164 165 165 161 159 156 153 152 153 155 158 159 167 185 237 277 294 307
154 113 203 204 231 258 242 199 213 220 200 218 142 103 130 312 135 139 155 155 155 154 155 161 165 166 168 170 169 169 169 168 169 168 166 166 164 162 163 169 169 175 176 192 237 266 284 298 307
152 116 217 216 226 254 244 246 58 277 231 112 139 173 141 185 161 151 157 159 163 159 158 162 166 168 171 173 173 174 172 172 172 172 171 173 174 174 177 191 200 207 223 256 273 285 299 305 304
156 185 219 215 206 224 309 303 56 12 120 349 162 155 163 156 172 153 148 158 165 166 164 167 168 170 174 177 176 176 177 176 175 176 176 180 183 186 200 208 223 241 266 275 286 291 298 303 305
176 203 225 168 245 274 278 355 308 64 108 25 47 131 175 154 157 158 155 164 169 172 171 174 172 171 175 177 179 179 179 179 179 182 184 188 193 204 212 212 226 265 279 289 291 293 287 296 306
204 225 232 181 243 261 277 299 339 246 201 192 179 172 176 160 157 166 168 167 177 173 174 177 176 174 176 180 179 180 182 180 183 188 191 194 201 202 222 240 250 278 278 284 295 298 290 294 300
258 242 242 328 292 283 262 38 345 285 261 200 174 181 171 169 177 170 172 170 172 172 179 183 181 179 181 180 181 181 181 181 186 192 196 198 196 208 236 248 258 287 285 279 295 297 291 296 300
246 265 261 216 243 264 277 270 246 275 260 179 178 176 181 206 189 174 178 170 172 171 178 183 186 185 185 183 182 183 182 185 188 189 190 194 202 225 253 232 244 278 270 287 293 305 325 304 304
112 233 247 249 253 251 262 284 182 258 109 186 179 189 185 207 175 14 170 171 176 174 178 183 186 188 187 190 187 186 187 188 190 188 188 190 200 223 263 234 254 309 313 310 302 296 314 312 309
258 242 259 239 243 248 285 282 245 248 229 183 195 197 203 113 47 40 344 180 181 181 178 183 187 190 192 193 194 191 189 187 189 197 197 197 200 211 214 240 272 312 334 307 50 19 336 336 324
288 143 231 252 199 245 154 257 261 201 209 185 184 184 174 140 101 57 22 175 191 185 180 179 186 192 195 201 201 191 194 197 199 202 210 205 207 215 221 219 237 26 331 349 354 12 3 1 348
252 218 198 303 184 214 182 250 272 212 220 163 180 179 174 161 100 50 12 335 158 154 184 186 182 186 197 194 201 200 199 186 184 188 206 201 203 207 207 190 153 347 332 2 30 33 41 23 357
210 191 185 185 164 195 259 249 343 265 219 160 180 163 160 159 147 104 36 327 266 114 46 307 193 174 171 160 168 171 167 152 156 163 180 192 200 204 182 157 124 69 70 54 46 39 40 22 6
311 257 210 220 252 184 250 265 244 272 247 152 163 156 142 84 349 128 143 222 232 232 270 343 272 181 177 177 172 162 159 144 141 157 164 168 164 157 168 148 115 89 77 65 50 37 28 22 12
249 273 288 288 247 169 259 269 200 258 252 169 151 146 161 147 155 140 153 173 177 141 218 232 307 190 192 183 165 166 158 140 144 148 155 159 153 149 140 127 106 93 84 64 46 32 26 24 27
233 234 238 217 342 241 265 275 201 200 83 84 107 145 149 159 157 166 175 173 178 168 187 199 274 305 254 193 167 152 159 147 136 137 142 138 145 136 125 113 103 93 79 66 48 34 28 17 25
228 209 244 268 23 231 168 265 230 173 100 104 134 148 155 159 153 187 192 195 204 209 176 202 229 296 285 180 173 175 164 150 146 142 134 131 129 124 119 111 103 91 75 57 43 32 28 33 16
271 189 225 247 219 324 288 109 250 124 128 173 172 170 168 178 173 172 194 197 212 213 213 217 244 246 221 204 188 177 176 168 144 134 133 134 129 123 115 106 99 82 60 43 30 23 24 7 1
166 8 55 68 134 217 236 150 262 179 182 169 181 183 180 190 169 169 183 158 185 191 186 146 137 142 170 214 202 196 171 148 140 143 146 139 127 117 111 100 79 64 46 28 18 9 1 345 352
94 84 19 84 117 216 158 121 240 256 165 174 188 189 186 188 184 172 165 173 157 172 191 162 140 164 245 231 190 174 166 158 153 154 151 136 131 127 112 98 84 62 31 16 359 346 348 347 345
164 157 157 168 180 248 136 209 247 220 101 171 187 182 177 187 194 180 175 196 174 180 173 176 136 161 191 213 179 171 168 158 154 156 144 135 129 116 110 96 76 54 13 1 346 356 356 341 336
140 143 172 100 262 64 221 265 317 247 244 131 167 158 183 184 194 178 185 193 177 181 192 180 169 168 178 170 156 148 156 153 152 146 138 131 124 124 117 98 68 25 10 2 359 357 355 341 332
158 162 66 23 118 242 262 245 237 224 231 164 180 194 198 203 178 180 170 186 192 177 182 177 152 142 145 142 142 140 139 149 151 144 132 126 121 117 105 77 44 14 346 347 345 347 348 349 354
113 79 40 100 134 263 322 261 217 220 226 166 195 193 172 184 195 189 187 187 188 167 158 149 135 124 128 134 130 131 133 128 125 123 122 118 111 88 66 38 2 347 338 338 345 360 354 350 345
145 150 161 132 204 209 180 275 323 279 217 170 182 183 179 178 194 153 146 121 125 116 122 124 126 122 125 129 132 129 126 118 114 114 109 108 94 74 42 9 351 342 337 354 13 9 358 353 349
Height
776 776 776 776 802 807 807 791 758 762 753 733 726 735 742 743 749 767 739 744 751 761 767 770 773 777 780 782 784 786 789 790 792 793 794 795 797 799 802 803 804 805 805 806 807 808 807 808 809
774 775 775 780 806 819 806 772 767 756 741 732 729 729 735 746 740 744 742 749 750 758 767 770 773 776 780 783 785 787 789 790 792 794 796 797 797 799 801 803 804 805 806 807 808 808 808 808 809
773 775 781 790 803 807 797 762 755 741 729 735 733 730 732 743 743 749 744 749 753 758 767 771 775 778 780 783 786 788 789 790 791 794 796 798 799 799 801 803 805 806 806 807 808 808 809 809 809
773 775 780 794 794 774 764 754 740 740 734 734 729 739 732 737 736 746 748 751 754 760 767 771 775 779 782 784 787 788 790 791 792 793 796 798 799 800 802 803 804 805 806 807 808 809 809 809 809
772 781 796 796 782 763 746 747 744 745 739 736 729 750 749 745 738 749 755 753 755 760 766 772 774 778 782 784 787 789 790 791 793 794 796 798 799 801 802 803 804 805 806 807 808 808 809 809 808
779 781 801 789 778 750 740 741 742 743 735 736 736 748 762 759 746 756 760 759 758 760 764 771 774 777 781 783 784 787 790 792 793 795 797 798 801 802 803 804 804 805 806 807 807 807 807 807 807
778 789 793 781 773 757 736 732 742 740 739 737 734 753 762 767 764 761 764 764 764 765 765 768 773 775 780 782 783 785 788 791 793 795 797 800 801 802 804 805 805 806 806 807 807 807 807 806 805
769 779 779 775 769 757 736 731 731 735 737 724 730 759 760 761 765 762 763 764 765 764 766 770 774 777 780 782 783 786 788 790 792 795 797 800 802 803 804 806 806 806 806 806 806 806 806 805 804
758 783 780 764 760 742 731 740 729 724 727 729 724 733 732 733 757 762 760 767 768 767 766 769 771 774 778 782 784 787 790 792 794 796 798 800 802 804 804 805 806 806 807 806 805 806 806 804 802
762 771 759 743 745 745 737 739 735 733 738 744 741 739 743 735 742 748 753 762 765 766 765 769 771 773 778 782 784 786 788 791 794 797 799 801 803 805 806 805 806 807 806 806 805 804 804 803 801
749 746 742 741 740 740 737 738 737 735 748 739 740 737 735 731 733 742 748 751 760 760 764 766 770 771 776 779 782 786 788 790 794 796 797 800 801 802 805 806 806 806 806 805 806 805 802 801 801
751 737 742 740 737 737 735 737 744 734 732 725 725 723 724 723 729 728 737 743 751 753 759 766 769 771 775 777 780 783 785 788 792 795 797 799 801 802 802 803 805 805 805 804 804 804 801 800 799
745 742 737 735 735 733 732 733 745 733 724 722 723 725 724 726 725 732 732 737 746 746 753 758 765 769 772 775 779 783 784 788 791 794 797 798 800 801 803 803 805 805 804 803 803 801 800 798 796
736 736 735 732 735 733 733 732 734 721 720 724 726 724 721 723 728 735 741 745 748 748 750 755 764 772 774 777 779 781 782 784 788 790 794 797 800 802 803 803 805 805 803 803 802 801 800 797 795
733 742 736 730 730 732 728 737 726 717 716 723 725 722 723 729 734 742 744 746 748 748 746 754 763 769 772 775 779 781 782 784 787 791 794 797 798 801 803 804 804 806 804 801 800 800 799 797 794
736 735 748 728 725 724 731 741 706 712 713 716 720 726 729 734 734 741 748 749 749 751 751 753 760 764 768 774 780 781 783 784 786 790 795 798 799 800 800 801 802 804 803 802 800 799 798 796 794
742 750 745 735 721 723 726 726 710 711 711 720 723 721 723 728 728 733 747 755 754 749 763 760 761 764 768 770 778 781 784 780 781 784 791 796 799 800 800 800 802 802 803 800 801 799 797 796 795
747 744 736 738 721 721 726 721 718 711 709 717 721 724 722 719 725 732 739 757 767 755 764 770 771 769 772 769 774 775 782 782 781 782 790 797 799 799 799 799 800 802 801 802 800 800 799 796 792
730 729 731 725 715 722 725 721 720 712 712 720 724 725 725 722 725 734 739 757 748 745 762 762 776 764 768 768 769 772 775 776 779 780 787 793 797 797 797 796 799 802 801 803 801 800 799 796 791
729 733 734 723 713 723 720 719 714 709 710 714 722 726 727 729 729 734 741 759 761 755 754 762 774 758 762 763 771 777 777 775 774 780 787 793 795 796 796 798 797 801 802 802 801 799 798 797 794
727 733 732 732 720 716 722 730 720 711 716 719 722 724 726 727 732 734 738 740 748 749 754 768 740 752 768 762 766 771 781 778 776 781 789 793 795 796 795 796 798 801 802 803 801 801 799 798 797
730 718 721 725 737 751 719 756 724 720 728 728 728 725 726 728 730 734 729 728 733 738 748 749 762 768 766 758 760 769 782 779 777 782 787 795 797 796 794 795 799 803 802 801 802 802 800 799 800
722 713 720 724 735 734 730 746 728 719 734 731 730 728 726 720 723 729 729 727 726 727 730 739 748 758 769 760 763 764 775 777 776 781 791 797 798 798 796 798 801 801 800 802 801 801 802 802 800
707 716 721 726 740 757 737 740 733 723 720 726 726 725 727 729 725 731 732 731 730 733 739 742 743 736 760 768 763 766 768 772 773 784 796 797 797 798 799 802 804 801 801 800 800 802 803 802 799
715 734 755 758 761 760 732 737 727 703 703 704 713 718 721 726 728 727 731 734 736 736 738 738 735 747 756 753 767 764 767 767 777 786 794 793 798 800 800 802 804 802 803 802 801 802 802 800 800
726 735 753 754 767 743 728 744 712 695 693 695 699 703 715 719 722 720 725 728 736 739 739 740 719 742 760 756 768 767 772 772 777 788 788 792 799 801 803 805 804 804 804 802 802 800 799 799 798
720 736 728 742 739 747 739 718 697 689 690 697 703 711 715 716 716 713 719 721 728 732 737 736 733 736 749 759 765 769 777 779 781 784 790 794 799 803 804 804 804 807 805 801 799 800 797 797 796
710 713 741 758 760 755 738 728 719 701 692 697 704 705 711 711 708 708 715 719 721 728 736 740 741 741 749 757 767 772 775 779 781 785 792 801 802 802 801 801 806 807 807 800 798 796 798 797 793
712 728 729 744 755 760 761 737 699 693 687 694 695 692 701 709 704 702 708 718 722 723 730 737 740 738 747 757 761 768 775 779 782 789 795 800 801 802 802 806 805 805 803 800 796 795 796 796 792
702 719 728 754 747 752 742 737 686 681 673 678 680 681 688 701 705 699 706 716 723 729 735 740 747 751 757 759 770 778 778 781 786 792 796 800 804 804 804 806 806 805 801 798 795 797 797 794 789